Погода в Канске

Погода в Канске : погода сейчас, прогноз погоды и архив. Всё, что Вы хотите узнать о погоде в Канске!

Хотите узнать прогноз погоды в Канске? Тогда Вам сюда: Погода в Канске

Поиск расширенной информации на нашем сайте:

Другие новости

Новости СМИ2

Главная страница сайта

Новости сайта

03.07.2017

Напоминаем, что на нашем специализированном сайте Метеоцентр.Азия вы можете получить высокодетализированные автоматические прогнозы погоды по пунктам России, СНГ и мира в авиационном формате (включающие направление и скорость ветра, видимость, явления погоды, количество и форму облачности, нижнюю и верхнюю границу облачности).


Погода в Канске - сегодня

Время (UTC), дата Ветер
(°,м/с) 
Видим.   Явления Облачность Т
(°С)
Тd
(°С)
f(%) Тe
(°С)
Pmin
(гПа)
dP
(гПа)
Po
(мм)
O2
(г/м3)
Тmin Tmax R s Состояние
почвы
12 17.02.18 240 (ЮЗ) н/о  в посл. час снег  10/0 средняя 
[Ac As]
-15 -17 85 -19  1039  759  325    -13.5  0.4     
15 17.02.18 250 (З) н/о    ясно 
-16 -17.9 85 -20  1038.9  -0.3  758  326           
18 17.02.18 240 (ЮЗ) н/о    10/0 средняя 
[As trans]
-15.8 -17.7 85 -21  1038.5  -0.4  758  326           
21 17.02.18 260 (З) н/о  слаб. снег  10/0 средняя 
[As op]
-15.7 -17.6 85 -19  1038.7  0.2  758  326           
00 18.02.18 230 (ЮЗ) н/о  слаб. снег  10/0 средняя 
[As op]
-15.6 -17.5 85 -19  1037.9  -0.6  758  325  -17.8    0.5  28  равномерный
сухой снег
100% 
03 18.02.18 240 (ЮЗ) 4000 м  слаб. снег  10/0 средняя 
[As op]
-15.3 -18 80 -21  1037.7  -0.2  758  325           
06 18.02.18 240 (ЮЗ) 10 км  {снег}  9/0 средняя 
[Ac As]
-13.5 -17 75 -18  1036.7  -0.8  757  322           
09 18.02.18 240 (ЮЗ) 4000 м  дымка  10/0 средняя, верхняя 
[Ac trans|Cs]
-13.5 -16.2 80 -17  1036.1  -0.6  757  322           
12 18.02.18 230 (ЮЗ) н/о  дымка  10/0 средняя 
[As trans]
-12.4 -15.1 80 -16  1035.5  -0.5  756  321    -12.4  0.5     
15 18.02.18 250 (З) н/о    10/0 средняя 
[As trans]
-11.7 -16.2 69 -17  1035  -0.5  756  320           
18 18.02.18 260 (З) н/о    10/0 средняя 
[As trans]
-13.6 -17.1 75 -18  1034.7  -0.6  755  322           
21 18.02.18 240 (ЮЗ) н/о    10/0 средняя 
[As trans]
-13.9 -18.2 70 -19  1034.1  -0.4  755  322           
00 19.02.18 240 (ЮЗ) н/о    10/0 средняя 
[As op]
-13.6 -17.9 70 -19  1033.8  -0.2  755  322  -13.9      28  равномерный
сухой снег
100% 
03 19.02.18 250 (З) 10 км  слаб. снег  10/0 средняя, верхняя 
[As trans|Cs]
-13 -15.7 80 -17  1034.1  0.3  755  321           
06 19.02.18 240 (ЮЗ) 20000 м  в посл. час снег  10/0 верхняя 
[Cs]
-11 -13.8 80 -16  1033.1  -0.8  755  318           
09 19.02.18 230 (ЮЗ) 20000 м    10/0 средняя, верхняя 
[Ac trans|Cs]
-9.7 -13.3 75 -14  1031.6  -1.4  754  316           
12 19.02.18 240 (ЮЗ) н/о    10/0 средняя, верхняя 
[Ac trans|Cs]
-9.5 -14.1 69 -14  1031  -0.5  753  316    -9  0.0     
00 20.02.18 250 (З) 6{11}  н/о  позёмок{ливн. осадки}  10/4 600 м кучево-дожд., средняя 
[Cb cap|As op]
-11.1 -13.9 80 -17  1030.4  -0.3  753  317  -11.3    0.0  27  равномерный
сухой снег
100% 
03 20.02.18 260 (З) 4000 м  слаб. снег  10/10 600 м 
[Ns]
-9.6 -11.7 85 -14  1029.8  -0.4  752  315           
06 20.02.18 270 (З) 4000 м  слаб. снег  10/0 средняя 
[As op]
-7.6 -10.7 78 -12  1028.7  -0.8  752  313           
09 20.02.18 270 (З) 4000 м  слаб. снег  10/4 600 м средняя 
[Frnb|As op]
-7.8 -10.9 78 -11  1029.3  0.4  752  313           
12 20.02.18 260 (З) н/о  слаб. снег  10/0 средняя 
[As op]
-9.4 -11 88 -12  1029.2  -0.2  752  315    -7.3  0.6     
15 20.02.18 260 (З) н/о  слаб. снег  10/0 средняя 
[As op]
-9.3 -10.9 88 -13  1028.6  -0.5  752  315           
18 20.02.18 260 (З) н/о  слаб. снег  10/0 средняя 
[As op]
-10.1 -12.1 85 -12  1028.1  -0.6  751  315           
21 20.02.18 250 (З) н/о  слаб. снег  10/0 средняя 
[As op]
-10.3 -11.6 90 -13  1027.3  -0.8  750  315           
Время (UTC), дата Ветер
(°,м/с) 
Видим.   Явления Облачность Т
(°С)
Тd
(°С)
f(%) Тe
(°С)
Pmin
(гПа)
dP
(гПа)
Po
(мм)
O2
(г/м3)
Тmin Tmax R s Состояние
почвы

Для получения пояснительной информации подведите курсор к названию столбца.

ПОГОДА в Канске - архив

Всё, что Вы хотите узнать о погоде в Канске - удобно и подробно!

Выберите нужную дату (начиная с 1 января 2015* года) и нажмите кнопку "Найти".
Будут отображены архивные сводки погоды по пункту Канск, начиная с указанной даты.


Отображать данные в формате CSV (для использования в таблицах Excel)


Внимание! Наш архив погоды предназначен исключительно для личного некоммерческого использования в познавательных целях. Если Вам необходимы официальные справки о состоянии погоды (для производственных, юридических, коммерческих и т.п. целей), обращайтесь в органы Росгидромета.

*Примечание: данная дата относится к архиву по метеостанциям СССР (Россия, СНГ, Балтия).
Архив по метеостанциям Зарубежной Европы и Азии (кроме Китая) хранится 10 дней, по другим регионам земного шара (Китай, Африка, Америка, Австралия, Океания) - 1 день.

Канск - район местоположения метеостанции


Название, широта, долгота, высота метеостанции:
Канск 56.2°ш. 95.6°д. 207 м над ур. моря [Российская Федерация]

Дополнительная информация

В oтличие oт бoльшинства пoгoдных сайтoв мы публикуем пoдрoбную метеoинфoрмацию в детальнoм прoфессиoнальнoм фoрмате.

Характеристики температуры и влажнoсти вoздуха измеряются на высoте 2 м в тени вдали oт зданий и деревьев.
Скoрoсть ветра измеряется на высoте 10 м (на урoвне рoста челoвека скoрoсть ветра ниже в 1.5-2 раза). Если метеoстанция нахoдится в гoрoде или в лесу, тo скoрoсть ветра занижена на 2-4 м/с пo сравнению с oткрытым местoм. Скoрoсть ветра над акватoриями крупных рек и oзёр, а также на вершинах хoлмoв на 2-5 м/с выше, чем в oбычных услoвиях.
Атмoсфернoе давление в разных тoчках местнoсти мoжет значительнo oтличаться oт давления на метеoстанции, в зависимoсти oт услoвий рельефа (при пoдъёме на 10 м давление пoнижается примернo на 1 мм рт.ст.).